Location: Newark
(52.9300°N, 3.3400°W)
Time: 08:40:37
(UTC+00:00)

DIWATA 2B (PO-101) - Visible Passes

Search period start: 09 May 2021 00:00
Search period end: 19 May 2021 00:00
Orbit: 585 x 599 km, 97.9° (Epoch: 08 May)

Date Brightness Start Highest point End Pass type
(mag) Time Alt. Az. Time Alt. Az. Time Alt. Az.
09 May ? 00:30:32 19° ESE 00:32:56 34° ENE 00:36:45 10° N visible
09 May ? 02:07:07 26° SW 02:08:30 32° W 02:12:18 10° NNW visible
10 May ? 00:39:19 21° SE 00:41:39 41° ENE 00:45:37 10° N visible
10 May ? 02:15:55 22° SW 02:17:20 27° W 02:20:56 10° NW visible
11 May ? 00:48:07 24° SE 00:50:23 49° ENE 00:54:27 10° N visible
11 May ? 02:24:42 19° WSW 02:26:11 22° W 02:29:32 10° NW visible
11 May ? 23:23:41 10° ENE 23:24:25 10° NE 23:25:09 10° NE visible
12 May ? 00:56:55 26° SE 00:59:07 59° ENE 01:03:16 10° N visible
12 May ? 02:33:29 16° WSW 02:35:03 19° W 02:38:04 10° NW visible
12 May ? 23:31:25 10° ENE 23:33:04 12° NE 23:34:43 10° NNE visible
13 May ? 01:05:42 27° SSE 01:07:53 71° ENE 01:12:05 10° N visible
13 May ? 02:42:17 13° WSW 02:43:55 16° W 02:46:32 10° NW visible
13 May ? 23:39:31 10° E 23:41:44 14° NE 23:43:55 10° NNE visible
14 May ? 01:14:29 28° SSE 01:16:39 85° ENE 01:20:52 10° NNW visible
14 May ? 02:51:04 11° WSW 02:52:48 13° W 02:54:51 10° WNW visible
14 May ? 23:47:47 10° E 23:50:23 16° ENE 23:53:00 10° NNE visible
15 May ? 01:23:17 28° S 01:25:26 81° WSW 01:29:39 10° NNW visible
15 May ? 03:00:32 10° WSW 03:01:42 11° W 03:02:51 10° WNW visible
15 May ? 23:56:08 10° ESE 23:59:04 19° ENE 00:02:00 10° NNE visible
16 May ? 01:32:05 28° S 01:34:12 67° WSW 01:38:24 10° NNW visible
17 May ? 00:04:32 10° ESE 00:07:45 22° ENE 00:10:59 10° N visible
17 May ? 01:40:53 26° SSW 01:43:00 55° W 01:47:09 10° NNW visible
18 May ? 00:13:06 10° ESE 00:16:27 25° ENE 00:19:54 10° N visible
18 May ? 01:49:41 24° SSW 01:51:49 45° W 01:55:52 10° NNW visible
